Home   Weather   Riesa   Past weeks

Flag for Germany Past Weather in Riesa, Saxony, Germany — Yesterday and Last 2 Weeks

Now
61 °F

Clear.


Feels Like: 61 °F
Forecast: 57 / 70 °F
Wind: 8 mph from Southwest

Location: Dresden-Klotzsche

Current Time: Sep 29, 2016 at 5:28:25 AM

Latest Report: Sep 29, 2016 at 4:50 AM


Visibility: 10 mi

Pressure: 30.18 "Hg

Humidity: 68%

Dew Point: 50 °F

Location of RiesaLocation

Past Weather in Riesa — Graph

°F

Riesa Temperature Yesterday

Maximum temperature yesterday: 70 °F (at 12:20 PM)
Minimum temperature yesterday: 50 °F (at 2:50 AM)
Average temperature yesterday: 61 °F

High & Low Weather Summary for the Past Weeks

 TemperatureHumidityPressure
High81 °F (Sep 14, 11:50 AM)100% (Sep 17, 1:50 AM)30.33 "Hg (Sep 17, 1:50 AM)
Low43 °F (Sep 22, 5:20 AM)36% (Sep 15, 11:20 AM)29.83 "Hg (Sep 17, 3:50 AM)
Average59 °F75%30.10 "Hg
* Reported Sep 14 4:20 AM — Sep 29 4:20 AM, Riesa, Weather by CustomWeather, © 2016

Note: Actual official high and low records may vary slightly from our data, if they occured in-between our weather recording intervals... More about our weather records

Advertising

Riesa Weather History for the Previous 24 Hours

Scroll right to see more
 ConditionsComfort  
Time TempWeatherWind HumidityBarometerVisibility
4:20 AM
Thu, Sep 29
61 °FClear.8 mph68%30.18 "Hg10 mi
3:50 AM61 °FClear.8 mph68%30.18 "Hg10 mi
3:20 AM61 °FClear.7 mph68%30.18 "Hg10 mi
2:50 AM63 °FClear.9 mph64%30.18 "Hg10 mi
2:20 AM63 °FClear.8 mph68%30.21 "Hg10 mi
1:50 AM63 °FClear.7 mph64%30.21 "Hg10 mi
1:20 AM63 °FClear.6 mph68%30.21 "Hg10 mi
12:50 AM63 °FPassing clouds.6 mph68%30.21 "HgN/A
12:20 AM63 °FClear.8 mph68%30.21 "Hg10 mi
11:50 PM
Wed, Sep 28
63 °FPassing clouds.7 mph68%30.21 "HgN/A
11:20 PM63 °FClear.8 mph68%30.21 "Hg10 mi
10:50 PM63 °FClear.8 mph68%30.21 "Hg10 mi
10:20 PM63 °FClear.9 mph68%30.21 "Hg10 mi
9:50 PM64 °FClear.7 mph64%30.18 "Hg10 mi
9:20 PM64 °FClear.8 mph64%30.18 "Hg10 mi
8:50 PM64 °FClear.7 mph64%30.21 "Hg10 mi
8:20 PM66 °FClear.8 mph60%30.21 "Hg10 mi
7:50 PM66 °FClear.8 mph60%30.18 "Hg10 mi
7:20 PM66 °FPassing clouds.8 mph60%30.18 "HgN/A
6:50 PM66 °FClear.9 mph60%30.18 "Hg10 mi
6:20 PM68 °FPassing clouds.10 mph56%30.18 "HgN/A
5:50 PM68 °FPassing clouds.9 mph56%30.18 "HgN/A
5:20 PM68 °FPartly sunny.9 mph56%30.18 "HgN/A
4:50 PM70 °FBroken clouds.10 mph53%30.18 "HgN/A
4:20 PM70 °FBroken clouds.12 mph53%30.18 "HgN/A
3:50 PM70 °FPartly sunny.12 mph50%30.18 "HgN/A
3:20 PM70 °FPartly sunny.15 mph50%30.18 "HgN/A
2:50 PM70 °FBroken clouds.13 mph57%30.18 "HgN/A
2:20 PM70 °FPartly sunny.16 mph53%30.21 "HgN/A
1:50 PM70 °FPartly sunny.17 mph53%30.21 "HgN/A
1:20 PM70 °FPartly sunny.18 mph50%30.21 "HgN/A
12:50 PM70 °FPartly sunny.17 mph50%30.21 "HgN/A
12:20 PM70 °FPartly sunny.15 mph57%30.24 "HgN/A
11:50 AM68 °FPartly sunny.13 mph60%30.24 "HgN/A
11:20 AM68 °FPassing clouds.13 mph60%30.24 "HgN/A
10:50 AM66 °FMild.10 mph68%30.24 "HgN/A
10:20 AM64 °FSunny.10 mph73%30.27 "Hg10 mi
9:50 AM61 °FSunny.9 mph77%30.27 "Hg10 mi
9:20 AM59 °FSunny.9 mph82%30.27 "Hg10 mi
8:50 AM55 °FSunny.7 mph94%30.27 "Hg10 mi
8:20 AM55 °FSunny.7 mph88%30.27 "Hg10 mi
7:50 AM54 °FSunny.6 mph88%30.27 "Hg10 mi
7:20 AM54 °FSunny.9 mph88%30.27 "Hg10 mi
6:50 AM54 °FClear.8 mph88%30.27 "Hg10 mi
6:20 AM52 °FClear.6 mph88%30.30 "Hg10 mi
5:50 AM52 °FClear.7 mph94%30.27 "Hg10 mi
5:20 AM52 °FClear.8 mph88%30.27 "Hg10 mi
Weather by CustomWeather, © 2016

See weather overviewHow to use our weather pages